Location: Niverville
(49.6028°N, 97.0419°W)
Time: 02:10:32
(UTC-06:00)

ISS - All Passes

Search period start: 08 February 2016 00:00
Search period end: 18 February 2016 00:00
Orbit: 399 x 408 km, 51.6° (Epoch: 07 February)

Date Brightness Start Highest point End Pass type
(mag) Time Alt. Az. Time Alt. Az. Time Alt. Az.
08 Feb - 16:12:25 10° SSE 16:13:26 11° SE 16:14:26 10° ESE daylight
08 Feb - 17:46:07 10° SW 17:49:17 52° SSE 17:52:28 10° ENE daylight
08 Feb - 19:22:31 10° W 19:25:45 62° N 19:28:58 10° ENE visible
08 Feb - 20:59:09 10° WNW 21:02:24 72° NNE 21:05:39 10° E visible
08 Feb - 22:35:43 10° W 22:38:44 35° SSW 22:41:43 10° SE night (unlit)
09 Feb - 16:53:49 10° SSW 16:56:47 33° SSE 16:59:46 10° E daylight
09 Feb - 18:29:51 10° W 18:33:06 74° NNW 18:36:21 10° ENE visible
09 Feb - 20:06:31 10° WNW 20:09:45 61° N 20:12:58 10° E visible
09 Feb - 21:43:02 10° WNW 21:46:14 54° SSW 21:49:24 10° SE visible
09 Feb - 23:20:51 10° WSW 23:22:06 12° SW 23:23:21 10° SSW night (unlit)
10 Feb - 16:01:47 10° SSW 16:04:20 21° SE 16:06:53 10° E daylight
10 Feb - 17:37:12 10° WSW 17:40:28 85° SSE 17:43:44 10° ENE daylight
10 Feb - 19:13:51 10° W 19:17:04 57° N 19:20:16 10° E visible
10 Feb - 20:50:23 10° WNW 20:53:38 80° SSW 20:56:53 10° ESE visible
10 Feb - 22:27:19 10° W 22:29:44 19° SW 22:32:08 10° S night (unlit)
11 Feb - 15:10:19 10° SSE 15:11:56 13° SE 15:13:33 10° ESE daylight
11 Feb - 16:44:38 10° SW 16:47:51 59° SSE 16:51:04 10° ENE daylight
11 Feb - 18:21:07 10° W 18:24:21 59° N 18:27:34 10° ENE visible
11 Feb - 19:57:44 10° WNW 20:00:59 77° NNE 20:04:14 10° ESE visible
11 Feb - 21:34:21 10° W 21:37:16 30° SSW 21:40:09 10° SSE visible
12 Feb - 15:52:14 10° SW 15:55:17 38° SSE 15:58:20 10° E daylight
12 Feb - 17:28:23 10° W 17:31:38 69° NNW 17:34:53 10° ENE daylight
12 Feb - 19:05:03 10° WNW 19:08:17 63° N 19:11:31 10° E visible
12 Feb - 20:41:34 10° WNW 20:44:42 47° SSW 20:47:51 10° SE visible
13 Feb - 15:00:02 10° SSW 15:02:45 24° SE 15:05:27 10° E daylight
13 Feb - 16:35:40 10° WSW 16:38:56 87° NNW 16:42:12 10° ENE daylight
13 Feb - 18:12:19 10° WNW 18:15:32 58° N 18:18:45 10° E visible
13 Feb - 19:48:51 10° WNW 19:52:05 72° SSW 19:55:19 10° ESE visible
13 Feb - 21:25:57 10° W 21:28:06 17° SW 21:30:16 10° S visible
14 Feb - 14:08:15 10° S 14:10:15 15° SE 14:12:15 10° E daylight
14 Feb - 15:43:01 10° WSW 15:46:14 67° SSE 15:49:29 10° ENE daylight
14 Feb - 17:19:33 10° W 17:22:46 58° N 17:25:59 10° ENE daylight
14 Feb - 18:56:07 10° WNW 18:59:24 83° NNE 19:02:39 10° ESE visible
14 Feb - 20:32:49 10° W 20:35:36 26° SW 20:38:23 10° SSE visible
15 Feb - 14:50:28 10° SW 14:53:35 44° SSE 14:56:43 10° ENE daylight
15 Feb - 16:26:45 10° W 16:29:59 65° N 16:33:14 10° ENE daylight
15 Feb - 18:03:23 10° WNW 18:06:38 67° N 18:09:52 10° E daylight
15 Feb - 19:39:55 10° WNW 19:43:01 41° SSW 19:46:06 10° SE visible
16 Feb - 13:58:08 10° SSW 14:00:58 28° SE 14:03:49 10° E daylight
16 Feb - 15:33:57 10° WSW 15:37:13 81° NNW 15:40:29 10° ENE daylight
16 Feb - 17:10:36 10° WNW 17:13:50 59° N 17:17:03 10° E daylight
16 Feb - 18:47:07 10° WNW 18:50:21 64° SSW 18:53:33 10° ESE visible
16 Feb - 20:24:27 10° WSW 20:26:18 14° SW 20:28:09 10° S visible
17 Feb - 13:06:08 10° S 13:08:24 18° SE 13:10:41 10° E daylight
17 Feb - 14:41:11 10° WSW 14:44:27 75° SSE 14:47:43 10° ENE daylight
17 Feb - 16:17:47 10° W 16:21:00 57° N 16:24:13 10° ENE daylight
17 Feb - 17:54:20 10° WNW 17:57:37 90° ESE 18:00:52 10° ESE daylight
17 Feb - 19:31:07 10° W 19:33:45 23° SW 19:36:24 10° SSE visible
